• In Belarus
  • List of Countries
  • For 7 days
  • Water Temperature
  • Weather Map
  • Weather Widgets
  • user-avatar
    Login

    Hourly Weather Pryvitne

    Today, 19 September, Thursday

    Time Temperature Precipitation Wind Pressure Humidity
    00:00 +9°C° 0 mm 6 mps 754 mmHg 61%
    01:00 +9°C° 0 mm 5 mps 754 mmHg 65%
    02:00 +8°C° 0 mm 5 mps 755 mmHg 68%
    03:00 +8°C° 0 mm 5 mps 755 mmHg 72%
    04:00 +7°C° 0 mm 4 mps 755 mmHg 76%
    05:00 +7°C° 0 mm 4 mps 756 mmHg 79%
    06:00 +8°C° 0 mm 4 mps 756 mmHg 74%
    07:00 +10°C° 0 mm 4 mps 757 mmHg 69%
    08:00 +12°C° 0 mm 5 mps 757 mmHg 64%
    09:00 +13°C° 0 mm 5 mps 757 mmHg 56%
    10:00 +15°C° 0 mm 5 mps 757 mmHg 48%
    11:00 +17°C° 0 mm 5 mps 757 mmHg 41%
    12:00 +17°C° 0 mm 5 mps 757 mmHg 38%
    13:00 +19°C° 0 mm 5 mps 756 mmHg 35%
    14:00 +19°C° 0 mm 6 mps 756 mmHg 32%
    15:00 +19°C° 0 mm 5 mps 756 mmHg 33%
    16:00 +18°C° 0 mm 4 mps 756 mmHg 33%
    17:00 +18°C° 0 mm 4 mps 756 mmHg 34%
    18:00 +17°C° 0 mm 3 mps 756 mmHg 35%
    19:00 +16°C° 0 mm 3 mps 757 mmHg 37%
    20:00 +15°C° 0 mm 2 mps 757 mmHg 38%
    21:00 +15°C° 0 mm 2 mps 757 mmHg 41%
    22:00 +14°C° 0 mm 2 mps 757 mmHg 44%
    23:00 +13°C° 0 mm 2 mps 757 mmHg 47%

    Tomorrow, 20 September, Friday

    Time Temperature Precipitation Wind Pressure Humidity
    00:00 +12°C° 0 mm 2 mps 757 mmHg 49%
    01:00 +12°C° 0 mm 2 mps 757 mmHg 52%
    02:00 +10°C° 0 mm 2 mps 757 mmHg 55%
    03:00 +9°C° 0 mm 2 mps 756 mmHg 57%
    04:00 +9°C° 0 mm 2 mps 756 mmHg 59%
    05:00 +10°C° 0 mm 1 mps 756 mmHg 61%
    06:00 +10°C° 0 mm 2 mps 756 mmHg 55%
    07:00 +13°C° 0 mm 2 mps 756 mmHg 49%
    08:00 +14°C° 0 mm 2 mps 756 mmHg 44%
    09:00 +16°C° 0 mm 3 mps 756 mmHg 40%
    10:00 +17°C° 0 mm 3 mps 755 mmHg 36%
    11:00 +18°C° 0 mm 3 mps 755 mmHg 32%
    12:00 +18°C° 0 mm 3 mps 755 mmHg 32%
    13:00 +18°C° 0 mm 3 mps 755 mmHg 32%
    14:00 +18°C° 0 mm 3 mps 754 mmHg 32%
    15:00 +18°C° 0 mm 3 mps 754 mmHg 35%
    16:00 +17°C° 0 mm 3 mps 754 mmHg 38%
    17:00 +16°C° 0 mm 3 mps 754 mmHg 41%
    18:00 +14°C° 0.5 mm 3 mps 754 mmHg 48%
    19:00 +13°C° 0.5 mm 2 mps 754 mmHg 56%
    20:00 +12°C° 0.5 mm 2 mps 755 mmHg 64%
    21:00 +11°C° 0.2 mm 3 mps 755 mmHg 66%
    22:00 +10°C° 0.2 mm 3 mps 755 mmHg 67%
    23:00 +10°C° 0.2 mm 3 mps 755 mmHg 68%

    Day after tomorrow, 21 September, Saturday

    Time Temperature Precipitation Wind Pressure Humidity
    00:00 +8°C° 0 mm 4 mps 755 mmHg 71%
    01:00 +8°C° 0 mm 4 mps 755 mmHg 73%
    02:00 +7°C° 0 mm 5 mps 755 mmHg 76%
    03:00 +7°C° 0 mm 5 mps 755 mmHg 76%
    04:00 +7°C° 0 mm 5 mps 756 mmHg 76%
    05:00 +6°C° 0 mm 5 mps 756 mmHg 76%
    06:00 +7°C° 0 mm 5 mps 756 mmHg 75%
    07:00 +7°C° 0 mm 5 mps 757 mmHg 75%
    08:00 +8°C° 0 mm 6 mps 757 mmHg 74%
    09:00 +9°C° 0 mm 6 mps 757 mmHg 65%
    10:00 +11°C° 0 mm 6 mps 757 mmHg 57%
    11:00 +13°C° 0 mm 6 mps 757 mmHg 49%
    12:00 +14°C° 0 mm 6 mps 757 mmHg 44%
    13:00 +14°C° 0 mm 6 mps 757 mmHg 40%
    14:00 +15°C° 0 mm 6 mps 757 mmHg 36%
    15:00 +14°C° 0 mm 6 mps 757 mmHg 35%
    16:00 +14°C° 0 mm 6 mps 757 mmHg 34%
    17:00 +13°C° 0 mm 5 mps 757 mmHg 34%
    18:00 +12°C° 0 mm 4 mps 758 mmHg 36%
    19:00 +11°C° 0 mm 3 mps 758 mmHg 38%
    20:00 +9°C° 0 mm 2 mps 758 mmHg 41%
    21:00 +9°C° 0 mm 3 mps 758 mmHg 40%
    22:00 +10°C° 0 mm 4 mps 758 mmHg 40%
    23:00 +10°C° 0 mm 4 mps 758 mmHg 39%

    22 September, Sunday

    Time Temperature Precipitation Wind Pressure Humidity
    00:00 +10°C° 0 mm 5 mps 757 mmHg 40%
    01:00 +10°C° 0 mm 6 mps 757 mmHg 40%
    02:00 +11°C° 0 mm 6 mps 757 mmHg 40%
    03:00 +11°C° 0 mm 6 mps 756 mmHg 43%
    04:00 +11°C° 0 mm 6 mps 756 mmHg 46%
    05:00 +11°C° 0 mm 6 mps 756 mmHg 49%
    06:00 +12°C° 0 mm 7 mps 756 mmHg 49%
    07:00 +14°C° 0 mm 7 mps 756 mmHg 49%
    08:00 +13°C° 0 mm 8 mps 756 mmHg 49%
    09:00 +16°C° 0 mm 8 mps 755 mmHg 47%
    10:00 +18°C° 0 mm 8 mps 755 mmHg 45%
    11:00 +20°C° 0 mm 8 mps 755 mmHg 43%
    12:00 +21°C° 0 mm 8 mps 755 mmHg 42%
    13:00 +22°C° 0 mm 9 mps 754 mmHg 40%
    14:00 +22°C° 0 mm 9 mps 754 mmHg 39%
    15:00 +22°C° 0 mm 8 mps 754 mmHg 41%
    16:00 +21°C° 0 mm 7 mps 754 mmHg 43%
    17:00 +20°C° 0 mm 6 mps 754 mmHg 45%
    18:00 +19°C° 0 mm 5 mps 754 mmHg 50%
    19:00 +17°C° 0 mm 4 mps 755 mmHg 55%
    20:00 +16°C° 0 mm 3 mps 756 mmHg 60%
    21:00 +14°C° 0 mm 3 mps 756 mmHg 62%
    22:00 +14°C° 0 mm 3 mps 756 mmHg 64%
    23:00 +13°C° 0 mm 3 mps 757 mmHg 66%

    23 September, Monday

    Time Temperature Precipitation Wind Pressure Humidity
    00:00 +12°C° 0 mm 3 mps 757 mmHg 61%
    01:00 +12°C° 0 mm 3 mps 758 mmHg 56%
    02:00 +11°C° 0 mm 3 mps 758 mmHg 52%
    03:00 +10°C° 0 mm 3 mps 758 mmHg 51%
    04:00 +10°C° 0 mm 2 mps 758 mmHg 51%
    05:00 +9°C° 0 mm 2 mps 758 mmHg 51%
    06:00 +10°C° 0 mm 2 mps 758 mmHg 47%
    07:00 +12°C° 0 mm 2 mps 758 mmHg 44%
    08:00 +13°C° 0 mm 2 mps 759 mmHg 41%
    09:00 +15°C° 0 mm 2 mps 758 mmHg 40%
    10:00 +17°C° 0 mm 2 mps 758 mmHg 39%
    11:00 +18°C° 0 mm 2 mps 758 mmHg 37%
    12:00 +19°C° 0 mm 2 mps 757 mmHg 38%
    13:00 +20°C° 0 mm 2 mps 757 mmHg 38%
    14:00 +21°C° 0 mm 2 mps 756 mmHg 38%
    15:00 +21°C° 0 mm 2 mps 756 mmHg 40%
    16:00 +21°C° 0 mm 2 mps 755 mmHg 42%
    17:00 +20°C° 0 mm 2 mps 755 mmHg 44%
    18:00 +19°C° 0 mm 3 mps 755 mmHg 50%
    19:00 +18°C° 0 mm 4 mps 755 mmHg 57%
    20:00 +16°C° 0 mm 5 mps 755 mmHg 63%
    21:00 +16°C° 0 mm 5 mps 755 mmHg 67%
    22:00 +16°C° 0 mm 5 mps 755 mmHg 71%
    23:00 +16°C° 0 mm 5 mps 754 mmHg 76%

    24 September, Tuesday

    Time Temperature Precipitation Wind Pressure Humidity
    00:00 +16°C° 0.2 mm 5 mps 754 mmHg 77%
    01:00 +15°C° 0.2 mm 5 mps 754 mmHg 78%
    02:00 +15°C° 0.2 mm 5 mps 753 mmHg 79%
    03:00 +15°C° 0.2 mm 5 mps 753 mmHg 78%
    04:00 +16°C° 0.2 mm 6 mps 753 mmHg 77%
    05:00 +16°C° 0.2 mm 6 mps 752 mmHg 76%
    06:00 +16°C° 0.1 mm 6 mps 752 mmHg 72%
    07:00 +17°C° 0.1 mm 6 mps 752 mmHg 68%
    08:00 +17°C° 0.1 mm 6 mps 751 mmHg 63%
    09:00 +19°C° 0 mm 6 mps 751 mmHg 57%
    10:00 +20°C° 0 mm 6 mps 751 mmHg 51%
    11:00 +21°C° 0 mm 6 mps 751 mmHg 45%
    12:00 +21°C° 0 mm 6 mps 750 mmHg 46%
    13:00 +21°C° 0 mm 5 mps 749 mmHg 46%
    14:00 +21°C° 0 mm 4 mps 749 mmHg 46%
    15:00 +20°C° 0.1 mm 4 mps 749 mmHg 52%
    16:00 +19°C° 0.1 mm 3 mps 748 mmHg 57%
    17:00 +18°C° 0.1 mm 2 mps 748 mmHg 63%
    18:00 +18°C° 0 mm 2 mps 748 mmHg 66%
    19:00 +18°C° 0 mm 3 mps 748 mmHg 69%
    20:00 +18°C° 0 mm 3 mps 747 mmHg 72%
    21:00 +18°C° 0 mm 3 mps 747 mmHg 73%
    22:00 +18°C° 0 mm 3 mps 747 mmHg 73%
    23:00 +17°C° 0 mm 3 mps 746 mmHg 73%
    Show more